Wind_Speed
31 31 31 31 31 31 30 30 30 30 30 29 29 29 29 30 29 30 30 31 31 31 31 31 33 33 32 33 33 33 32 31 30 30 29 29 29 29 29 28 27 26 26 25 24 23 22 21 21 21 20 20 19 19 18 18 17 16 15 15 14 13 13 14 14 14 14 12 11
31 31 31 31 31 31 30 29 30 30 31 30 30 30 31 31 31 31 32 33 33 33 32 32 32 32 33 34 34 34 33 32 31 31 30 30 29 29 29 28 27 27 26 25 24 24 23 22 22 21 21 20 20 19 18 18 17 17 16 16 15 15 14 14 15 15 15 14 13
31 31 30 30 31 31 29 28 29 30 31 30 30 30 31 31 32 32 32 33 33 33 32 32 32 33 33 34 35 34 33 32 31 31 31 30 30 29 29 28 27 27 26 26 25 24 23 23 22 22 21 21 20 20 19 18 18 17 17 17 16 16 15 15 15 15 15 14 14
31 31 30 30 31 32 31 30 30 31 31 30 30 30 30 31 31 31 32 32 32 32 32 32 32 32 34 34 35 34 33 32 31 31 31 31 30 30 29 28 28 27 27 26 26 25 24 23 23 22 22 21 21 21 20 19 19 18 18 17 17 16 16 16 16 15 15 15 14
31 31 31 31 32 33 32 31 32 32 32 31 30 30 30 30 30 30 30 30 31 32 32 32 31 32 33 33 35 35 33 32 32 31 31 31 31 30 29 29 29 28 28 27 27 26 25 24 23 22 22 21 21 21 21 20 20 19 18 17 17 16 16 16 16 16 15 15 15
31 32 32 32 33 34 33 32 33 33 33 31 31 31 31 30 30 30 30 30 31 32 32 31 30 30 31 32 34 34 34 33 32 32 32 32 31 31 30 30 30 30 29 29 28 27 26 25 24 23 22 21 21 21 21 21 20 20 19 18 17 17 16 16 16 16 16 16 16
31 32 32 32 33 34 33 33 33 33 33 32 32 32 32 32 31 31 31 31 31 31 31 30 30 29 30 31 33 34 34 33 33 33 33 33 32 31 31 31 31 31 31 30 29 28 27 26 25 23 22 22 21 21 21 21 20 20 19 18 17 17 17 16 16 16 16 16 16
31 32 32 33 33 34 34 34 33 33 33 33 33 33 33 32 32 32 31 30 30 30 31 30 30 29 29 30 32 33 34 33 33 33 33 33 33 32 32 32 32 32 31 31 30 28 27 26 25 24 23 23 22 21 21 20 20 19 19 18 17 17 17 17 17 17 17 17 17
31 32 32 33 34 35 35 34 34 33 33 33 33 34 33 32 32 32 31 31 30 31 31 30 30 30 29 29 30 32 33 33 33 33 34 33 33 33 33 33 33 32 31 30 29 28 27 27 26 25 24 23 23 22 20 20 19 19 19 18 17 17 17 18 18 18 18 17 17
31 31 32 33 34 35 35 35 34 34 33 33 33 33 33 33 32 32 32 32 31 31 32 31 31 31 30 29 29 30 33 33 33 34 34 34 34 34 33 33 33 32 31 30 29 28 27 27 26 25 24 24 23 22 20 19 19 19 18 18 17 17 17 18 19 19 19 18 18
31 31 32 33 34 35 35 34 33 33 33 32 32 33 33 33 33 33 33 32 32 32 33 33 32 32 32 31 30 31 33 33 33 33 34 34 34 34 33 33 33 32 31 30 29 28 27 27 26 25 25 24 23 22 21 20 19 19 18 17 17 17 18 19 19 19 19 19 19
31 31 31 32 34 35 34 34 33 32 32 31 32 32 32 33 33 33 33 32 33 33 34 34 33 33 33 32 31 32 33 33 33 33 33 33 33 33 32 32 32 31 31 30 29 28 28 27 27 26 25 24 23 22 21 20 19 18 18 17 18 19 20 20 20 19 19 19 19
31 31 31 32 34 34 34 33 32 32 31 31 32 32 31 32 33 33 33 33 33 34 33 33 33 33 33 33 32 32 32 33 33 33 32 32 32 32 32 31 31 31 30 30 29 28 28 27 26 26 25 24 23 22 21 20 19 18 18 18 19 21 21 21 20 19 19 19 19
31 30 31 32 34 34 34 33 32 31 31 32 32 32 31 31 32 33 33 33 33 33 32 32 32 33 33 33 33 33 33 33 33 32 32 32 32 32 31 31 31 30 30 29 29 28 28 27 26 25 25 24 23 21 20 18 18 18 19 20 21 22 23 22 21 20 19 19 19
31 30 31 32 34 34 34 33 32 31 31 32 32 32 31 30 31 32 33 33 33 32 32 32 32 32 32 33 33 34 34 33 32 32 31 31 31 31 31 31 31 30 30 29 29 28 27 27 26 26 25 23 21 19 18 18 18 19 20 21 22 23 23 22 22 21 21 21 21
31 31 32 33 34 34 34 33 31 31 31 32 32 31 30 29 30 31 32 33 32 31 31 31 32 32 32 32 32 33 33 33 32 32 31 31 31 31 31 31 30 30 29 29 28 27 26 26 27 26 25 22 19 17 17 18 19 20 21 21 22 22 22 22 22 22 22 22 22
32 32 32 34 35 35 34 33 31 30 31 31 31 31 30 29 30 31 32 33 32 31 31 32 32 32 32 32 32 32 32 32 32 31 31 31 31 31 31 31 30 29 29 29 28 27 27 27 27 26 23 20 18 18 19 20 20 21 21 21 21 21 21 21 21 21 22 22 23
32 32 33 35 36 36 35 34 32 31 31 31 31 30 30 30 30 31 32 33 32 32 32 32 32 32 31 32 31 31 31 31 31 31 31 30 30 30 30 30 29 28 28 28 29 28 28 28 27 25 22 19 19 19 20 21 21 21 21 21 21 20 20 20 20 20 21 22 22
33 33 34 36 36 36 36 35 33 32 31 31 31 30 30 30 31 31 32 32 32 32 32 32 31 31 31 31 31 30 30 30 30 30 30 30 30 29 29 28 28 27 27 28 28 28 28 28 26 23 20 19 20 21 22 22 22 21 21 21 20 19 18 18 18 18 19 20 20
34 34 35 36 37 37 36 36 34 33 32 31 31 31 31 31 31 32 32 32 32 32 32 32 31 30 30 31 31 30 29 29 29 29 29 29 29 29 28 28 27 27 27 27 26 26 27 26 24 22 20 20 21 22 23 23 23 22 22 21 20 19 18 18 17 17 17 17 17
34 35 36 36 37 36 36 36 35 33 32 32 31 31 31 31 31 32 33 32 32 32 32 31 30 29 30 30 30 30 29 28 28 28 28 27 28 28 28 28 27 26 25 25 25 26 26 24 22 20 20 21 22 23 24 24 24 23 23 22 21 20 19 19 18 18 17 17 17
34 35 36 36 36 36 36 35 34 33 32 32 31 31 31 31 31 32 32 32 31 31 31 30 29 29 29 30 30 30 29 28 28 28 27 27 27 27 27 27 26 25 24 24 24 25 25 22 20 19 20 21 23 24 24 24 24 24 23 23 22 21 21 21 20 20 19 19 19
32 33 34 35 35 35 35 34 34 33 32 31 31 31 31 31 31 31 31 31 30 30 29 29 28 28 29 30 30 30 29 29 29 29 28 28 28 28 27 26 25 24 23 24 25 24 22 20 19 19 20 22 23 24 24 24 24 24 23 22 22 21 21 21 21 20 20 20 21
28 30 31 33 34 34 34 34 33 32 32 32 32 32 31 31 31 30 30 30 29 28 28 28 27 27 28 29 29 29 29 29 29 30 30 30 29 28 26 25 24 23 24 25 24 22 20 19 19 20 21 22 22 23 23 23 23 22 22 21 20 20 20 20 20 20 20 20 21
24 27 29 31 32 33 34 33 33 32 32 32 33 33 32 31 31 30 30 29 28 28 27 27 27 27 27 27 28 28 28 29 29 30 30 30 29 27 26 24 23 23 23 23 21 20 19 19 19 20 21 21 22 22 22 21 20 20 19 19 18 18 18 18 18 19 19 20 20
23 24 26 28 31 33 33 33 33 33 33 33 33 33 33 32 31 30 30 29 28 27 27 26 26 26 26 26 27 27 28 28 29 29 29 29 28 27 25 23 22 21 21 21 20 19 19 20 20 20 21 21 22 21 20 19 18 18 18 17 17 17 17 18 18 19 19 20 20
23 23 25 29 31 33 33 34 34 34 33 33 33 33 32 32 31 30 29 29 27 26 26 25 25 25 26 26 27 28 28 29 29 28 28 27 26 25 24 22 21 21 20 20 20 19 20 20 20 21 21 21 21 20 19 18 18 18 18 18 18 18 18 18 18 19 19 20 21
22 23 27 31 33 33 34 35 35 34 33 33 33 32 32 31 30 29 29 28 27 26 25 25 25 25 26 27 28 29 29 30 29 28 27 25 24 23 22 21 20 20 20 20 20 20 20 20 21 21 21 20 19 19 18 19 18 19 19 19 19 19 19 19 20 20 21 21 22
25 28 30 31 32 33 33 34 34 34 33 33 32 31 30 30 29 28 28 27 26 25 25 25 25 26 27 28 29 30 30 30 29 28 26 24 23 22 21 21 20 20 20 20 20 20 20 21 22 22 21 19 19 18 19 19 19 19 20 20 20 20 20 21 21 22 22 23 24
30 31 31 30 31 31 31 31 30 31 32 33 31 29 28 27 26 26 26 26 26 26 26 25 26 27 28 29 29 29 29 29 28 27 26 24 23 22 22 21 21 21 20 20 20 21 21 22 22 21 20 19 19 19 19 20 20 20 21 21 21 21 22 22 23 23 24 24 24
32 31 30 28 29 30 29 28 26 26 28 30 28 25 23 21 23 24 25 25 25 26 26 25 26 28 28 29 29 28 27 26 26 25 25 25 24 23 23 22 21 21 20 21 21 22 22 22 21 20 18 18 18 19 20 20 21 21 22 22 22 22 23 23 24 24 24 25 25
32 29 26 25 27 29 28 24 22 22 23 23 21 18 16 17 20 23 24 24 25 26 26 26 27 28 28 27 27 27 26 25 24 25 25 25 25 24 23 22 21 21 21 21 22 22 21 20 19 17 16 16 17 18 19 20 21 22 22 23 23 23 24 24 25 25 25 25 25
31 26 21 22 25 27 25 21 19 19 18 17 15 14 14 16 19 23 24 24 25 26 26 26 27 27 27 26 26 26 25 25 25 25 25 25 24 23 22 21 21 22 22 22 21 20 19 18 17 16 15 16 17 18 19 20 21 22 22 23 23 24 24 25 25 26 26 26 26
27 22 19 20 22 23 21 18 16 16 16 14 14 14 14 16 21 23 24 24 25 25 26 26 27 27 27 26 26 26 25 24 24 24 24 24 23 22 22 22 22 22 21 21 20 19 17 16 15 15 15 16 17 18 19 20 21 21 22 23 23 24 25 25 26 26 27 27 27
25 21 19 20 21 21 19 17 16 16 15 14 14 14 15 17 21 23 24 24 24 24 24 25 25 26 26 25 25 25 25 24 24 23 23 22 22 23 23 22 21 20 19 19 18 17 16 14 14 14 15 16 17 18 19 20 21 22 22 23 24 25 25 26 26 27 27 27 27
25 23 22 23 22 21 20 18 17 16 15 14 14 14 15 16 19 21 22 23 23 23 23 23 23 24 24 23 23 23 23 23 22 22 22 22 23 23 22 21 19 18 17 17 16 15 14 13 13 14 15 16 17 18 19 20 21 22 22 23 24 25 25 26 26 27 27 27 27
25 25 24 24 23 22 20 19 19 17 16 14 14 14 15 16 18 20 20 21 22 22 23 23 23 23 23 23 23 22 22 21 21 22 22 22 22 22 21 19 18 17 16 15 14 13 12 13 13 14 15 16 17 18 19 19 20 21 21 22 23 23 24 24 25 25 26 26 27
25 25 25 24 23 22 21 20 19 18 17 16 15 15 16 17 19 20 20 21 22 23 23 23 23 24 23 23 22 21 21 21 21 21 22 21 21 20 19 17 16 15 14 13 12 12 12 13 14 14 15 16 17 17 17 18 18 19 20 20 21 22 22 23 23 24 25 25 26
25 24 24 24 23 22 21 19 19 18 18 18 18 18 18 19 20 20 21 21 22 23 23 23 24 23 23 22 21 21 20 20 20 20 20 19 19 18 17 16 15 14 13 12 12 12 13 14 14 15 15 16 17 17 17 18 19 19 20 20 21 21 22 22 23 23 24 25 25
24 24 23 23 22 21 20 19 19 19 19 19 20 20 20 20 20 20 21 21 22 22 22 23 23 22 22 21 21 20 20 19 19 19 18 18 17 16 15 14 13 12 11 11 12 13 13 14 14 15 15 16 17 17 18 18 19 20 20 21 21 22 22 23 23 23 24 24 25
24 23 23 22 22 21 20 20 20 20 21 21 21 22 22 21 21 21 21 21 21 21 21 21 21 21 21 21 20 19 19 18 18 17 17 16 15 14 13 12 11 10 10 11 12 12 13 13 13 14 14 14 15 15 16 16 17 18 19 20 21 21 22 23 23 24 24 24 24
Wind_Direction
185 184 183 181 181 181 182 182 182 183 183 183 183 185 186 187 187 189 190 190 191 192 192 193 192 192 190 188 188 189 190 191 191 191 192 192 192 191 189 187 187 187 189 190 191 191 191 191 190 189 189 191 192 193 195 197 197 198 197 196 196 198 203 206 206 205 205 205 206
186 186 185 184 183 183 183 184 184 184 185 185 185 186 188 188 189 191 192 193 194 194 194 194 194 193 192 190 190 190 191 191 191 192 192 192 192 191 189 188 188 189 190 191 192 192 191 191 190 189 189 191 192 194 195 197 198 198 198 198 198 201 205 209 210 210 209 209 210
188 188 187 186 185 184 184 184 185 186 186 187 187 188 189 190 192 193 194 195 195 195 195 195 195 195 194 192 191 191 192 192 192 192 192 192 191 190 189 189 189 190 191 192 193 193 192 191 190 189 190 191 193 194 195 196 197 198 199 200 201 203 207 211 213 213 212 212 213
189 189 189 189 187 186 186 186 187 187 188 188 189 190 191 192 193 194 195 195 195 195 195 195 195 195 195 193 192 192 192 192 193 193 192 192 191 191 191 190 190 191 192 193 194 194 193 192 190 190 190 192 193 194 195 195 197 199 201 202 204 206 209 213 214 214 214 213 214
190 191 192 192 191 190 189 188 188 188 189 189 189 191 192 193 194 195 195 195 195 196 197 196 196 195 195 194 193 192 192 193 194 194 193 193 192 191 192 192 191 191 192 194 195 194 193 191 190 190 192 193 195 196 196 196 198 201 204 206 207 208 211 215 216 215 214 214 214
192 193 194 194 194 192 191 190 190 190 190 190 190 191 193 193 194 194 195 195 196 197 197 196 196 195 195 195 194 193 193 194 195 195 195 194 194 193 192 192 193 193 194 194 195 194 193 191 189 190 192 195 197 198 199 199 201 204 207 209 210 211 213 216 218 217 216 215 215
194 194 195 196 195 194 192 192 192 191 191 191 191 192 193 194 194 195 195 196 196 196 195 195 194 194 194 194 194 194 194 195 196 196 196 195 194 194 194 194 194 195 195 195 194 193 192 190 189 190 193 195 197 199 200 202 205 208 211 213 213 213 214 217 218 218 217 216 216
196 196 196 196 196 195 194 192 192 192 191 192 192 193 194 195 194 195 195 195 195 195 194 193 193 192 193 193 194 195 196 196 197 197 196 195 195 195 195 195 194 195 195 194 194 192 191 189 189 190 193 195 196 198 201 204 207 210 213 215 215 214 215 217 218 219 218 217 217
197 197 196 196 197 196 195 194 193 192 192 193 194 195 195 196 195 194 194 194 195 194 193 192 191 191 191 192 195 196 197 198 197 197 196 196 195 195 195 194 194 193 194 194 193 192 190 189 190 192 193 195 196 198 201 205 208 211 213 214 214 215 216 218 219 219 219 219 219
198 197 196 196 196 196 196 195 194 194 194 194 194 195 196 196 195 195 194 194 194 192 191 191 191 190 189 191 195 198 199 199 198 197 197 196 196 195 194 193 192 192 192 192 193 192 190 189 191 193 195 196 197 198 201 205 209 211 212 213 215 217 218 219 220 220 221 221 222
199 198 197 196 195 195 195 194 195 195 195 194 194 194 195 195 196 195 194 193 192 191 191 191 191 190 189 190 195 198 200 200 199 198 197 196 195 195 193 192 192 192 192 192 192 191 190 190 192 194 196 198 199 200 201 204 208 211 213 214 217 219 220 220 220 221 222 224 225
200 199 197 196 195 194 194 193 194 195 195 194 193 193 194 195 195 195 194 192 191 191 191 191 191 191 191 191 194 197 199 199 198 197 196 195 195 194 193 192 192 192 192 192 191 190 190 191 193 195 197 199 201 202 203 205 209 211 215 218 221 222 222 221 221 222 224 226 228
200 199 197 196 195 194 193 193 194 194 194 193 192 193 193 194 195 195 193 192 192 191 191 191 192 193 193 193 194 196 198 198 198 197 195 194 193 192 192 191 192 192 192 192 191 190 190 191 193 195 197 199 201 203 204 206 210 214 218 222 224 224 223 222 222 224 226 229 231
200 198 197 195 194 193 193 193 194 194 194 193 193 193 193 194 194 194 193 192 192 191 191 191 193 194 195 194 193 194 196 197 197 196 195 194 192 191 191 191 191 192 192 192 192 191 191 192 194 197 198 200 201 203 205 208 214 219 223 225 226 226 225 225 226 227 229 231 234
200 199 197 195 193 192 192 193 193 194 194 193 194 194 194 194 194 194 193 192 191 191 190 190 192 195 196 196 194 193 194 195 195 194 194 193 192 191 191 190 191 191 191 192 191 191 192 194 197 200 201 201 201 203 207 213 219 224 227 228 228 228 228 228 229 230 232 234 236
200 198 196 193 192 191 192 192 192 193 194 193 194 195 195 195 194 193 192 191 190 189 190 190 192 194 195 195 194 193 192 193 193 192 192 192 191 191 191 190 190 190 191 191 191 191 193 197 201 204 203 201 201 206 213 221 226 229 230 231 231 231 232 232 233 234 235 236 238
200 197 194 192 191 191 191 191 192 193 194 193 194 195 196 196 194 192 191 190 188 188 190 192 192 193 193 194 193 191 191 191 192 191 191 191 191 191 190 190 189 189 190 190 190 191 195 201 205 206 204 201 204 212 221 227 231 233 233 233 234 235 236 237 237 237 238 238 239
199 196 193 191 190 190 190 191 191 192 193 193 194 195 196 196 193 191 190 189 188 188 189 191 191 192 192 192 190 190 190 191 191 191 191 191 191 191 190 190 189 189 189 190 191 194 198 202 205 204 202 202 210 219 226 231 234 235 236 236 237 238 240 241 241 241 241 241 241
198 195 192 190 189 190 190 190 190 191 192 193 194 195 196 195 192 189 188 187 187 188 189 189 190 190 190 190 189 188 189 190 191 191 191 191 191 191 191 189 189 189 190 191 194 197 200 202 202 201 201 207 216 224 229 233 234 235 236 238 238 239 240 242 243 244 244 245 245
196 193 190 189 189 189 189 190 190 191 192 192 193 194 194 193 190 187 186 186 187 188 189 188 188 188 187 187 187 187 188 190 190 191 191 191 191 190 190 189 189 190 191 193 195 198 200 200 199 200 204 213 221 227 231 233 234 235 237 238 239 239 240 242 243 245 246 248 250
194 191 189 188 188 188 188 189 190 190 191 191 192 192 192 191 189 186 185 186 188 188 188 188 188 187 186 185 185 186 187 188 189 189 190 190 189 189 189 189 189 190 192 194 196 198 199 198 199 204 212 220 226 230 232 233 234 235 237 238 239 241 242 244 246 248 250 252 255
191 189 187 187 187 188 188 188 189 189 190 190 190 190 189 188 187 186 186 186 187 187 187 188 188 187 186 185 185 185 186 186 187 188 188 188 188 188 188 188 189 190 192 194 196 198 198 199 204 212 220 226 230 232 234 235 235 236 237 239 240 242 244 246 249 252 254 257 259
190 188 186 186 187 187 188 188 188 188 188 188 187 186 185 184 184 184 184 184 185 185 186 186 186 186 186 185 184 184 184 185 186 187 187 187 187 187 187 188 190 191 193 195 197 198 200 205 214 221 226 229 232 234 235 236 236 236 237 238 240 243 245 248 251 255 258 260 262
190 187 185 184 185 186 187 187 187 186 185 183 182 181 180 180 180 180 181 182 182 182 183 183 184 185 185 185 184 184 184 184 185 186 186 186 185 185 186 188 191 193 195 197 198 200 205 214 223 228 229 230 233 235 236 236 235 234 235 237 240 243 247 250 254 257 260 262 263
187 183 181 181 182 184 184 184 183 181 179 178 176 175 174 175 175 176 177 179 180 180 180 181 182 183 183 183 183 184 185 186 186 185 184 184 183 184 185 188 190 194 197 199 201 205 214 224 229 231 231 232 234 235 235 234 232 232 234 237 241 245 250 254 257 260 262 264 265
174 174 176 178 178 178 176 175 174 173 171 171 170 170 170 170 171 172 174 175 176 177 177 178 180 181 181 181 182 184 186 187 187 186 183 182 182 183 185 187 190 195 198 201 206 213 221 227 230 232 233 234 235 234 232 230 231 232 235 240 244 250 255 259 262 263 264 265 265
164 167 170 172 169 167 165 165 164 163 163 164 164 165 166 167 168 169 171 172 173 174 176 177 179 180 181 181 182 185 187 188 187 185 183 181 181 181 183 186 191 196 200 205 212 219 224 227 230 233 235 235 234 232 231 232 233 236 239 244 249 253 258 261 264 265 266 266 267
161 164 163 160 157 155 155 156 155 155 156 158 160 161 163 164 165 166 168 169 171 173 175 178 180 182 183 183 184 185 187 186 185 183 182 181 181 181 183 187 192 197 203 210 217 222 225 227 230 233 235 235 234 234 235 237 239 242 245 249 253 257 260 262 264 266 268 268 269
161 160 157 153 149 149 149 148 149 150 151 154 156 157 159 161 163 165 167 169 170 173 176 179 182 184 184 184 185 185 184 183 182 181 181 181 181 183 187 191 196 202 208 215 220 223 225 228 230 233 234 236 237 239 241 243 246 248 251 254 258 260 263 265 266 268 269 270 271
157 155 153 152 150 150 149 146 145 146 149 151 153 154 156 158 162 165 167 170 172 176 179 182 184 184 183 183 183 182 181 180 180 180 180 180 182 186 191 196 201 208 214 219 222 224 226 228 230 233 236 239 243 246 249 251 253 254 256 259 261 264 266 268 270 271 272 273 273
152 151 149 148 149 151 150 148 146 146 148 150 152 154 158 161 165 168 171 173 176 179 181 183 183 182 181 182 181 179 178 178 179 180 181 182 185 190 195 201 207 213 217 221 223 224 225 227 230 234 240 245 249 252 255 257 258 260 261 263 265 267 269 271 272 273 274 274 274
150 148 147 148 150 152 152 153 153 154 154 155 158 164 170 174 174 174 175 177 178 179 180 180 179 178 178 178 178 178 178 178 180 183 185 188 192 196 201 206 211 215 218 220 221 222 224 226 231 237 244 249 253 256 259 261 262 264 265 267 268 270 271 272 273 273 274 274 274
151 149 150 152 154 156 159 163 167 169 170 174 179 186 190 188 183 178 176 177 179 179 178 178 177 176 176 176 177 178 179 182 185 189 193 196 198 202 205 210 213 216 218 219 219 221 223 227 233 241 248 254 257 259 262 263 265 267 268 270 271 271 272 272 273 273 273 274 274
154 155 157 160 161 164 169 175 180 184 186 189 189 190 191 187 181 178 177 177 179 179 179 179 179 179 179 180 181 182 185 189 193 196 198 200 202 204 209 213 215 216 216 216 218 220 224 230 238 247 254 258 261 263 265 267 269 270 271 272 272 272 272 272 272 272 272 273 273
158 160 162 164 166 168 172 177 181 185 187 186 181 180 181 181 179 178 179 179 179 180 180 181 182 183 184 186 188 191 193 195 198 199 200 201 203 207 212 214 214 214 213 215 218 221 227 236 246 255 260 263 266 267 269 270 271 272 272 273 273 273 273 272 272 272 271 271 272
160 160 160 161 163 166 168 171 174 177 179 178 176 177 181 183 182 182 183 181 180 179 180 182 183 185 187 189 193 196 198 198 198 199 200 202 206 210 213 213 212 211 212 214 218 224 232 244 255 262 266 269 270 272 272 273 273 274 274 274 273 274 273 273 272 272 271 271 272
160 159 159 160 162 164 167 168 169 171 172 174 175 177 178 179 180 181 181 180 179 178 180 182 183 186 189 191 193 196 198 198 198 199 202 205 208 211 211 210 209 210 212 215 221 230 242 253 262 267 270 272 273 275 275 276 276 276 276 276 276 276 277 276 275 274 273 273 273
160 161 161 161 162 164 166 167 168 169 170 170 172 173 173 173 174 176 177 178 178 178 179 181 184 187 189 192 192 194 196 197 199 201 203 206 207 207 207 207 207 210 214 220 229 242 253 262 267 270 273 275 277 279 279 280 280 280 280 280 280 280 280 279 278 276 275 275 275
161 162 162 163 163 164 165 167 169 169 168 167 168 169 170 170 171 174 177 179 180 180 180 181 183 186 188 189 190 192 195 198 200 202 202 202 202 203 204 205 208 213 221 231 243 255 263 267 270 272 275 278 280 282 283 284 283 283 282 282 281 281 281 280 279 278 277 276 277
161 163 164 164 164 165 167 168 169 168 167 166 167 168 168 169 171 173 176 179 180 181 182 182 183 185 186 187 188 191 194 196 198 198 197 197 198 200 203 206 213 222 234 246 257 265 270 272 275 277 279 281 282 283 284 284 283 282 281 281 281 280 280 280 279 278 277 278 278
161 162 163 165 166 167 168 168 168 167 167 167 167 168 169 170 170 172 174 176 178 180 181 181 182 183 184 186 188 189 189 190 191 192 193 194 197 200 205 212 223 236 248 259 266 271 275 279 281 283 284 285 286 288 288 287 284 282 282 282 282 281 281 280 280 279 279 279 281
Height
795 796 797 798 799 800 801 802 803 805 806 807 808 810 811 812 814 815 816 817 818 818 819 820 821 822 823 824 824 825 826 827 828 829 830 831 833 834 836 837 838 839 839 840 841 842 843 844 844 845 846 847 848 848 849 850 850 851 852 852 853 853 853 854 854 854 854 854 855
794 795 795 796 797 798 800 801 802 803 804 805 806 808 809 810 811 812 813 814 815 816 817 818 819 820 822 822 823 824 825 826 827 828 829 831 832 833 835 836 837 837 838 839 840 841 842 842 843 844 845 846 847 847 848 849 849 850 851 851 851 852 852 852 853 853 853 853 854
792 793 794 795 796 797 798 800 801 802 803 804 805 806 807 808 809 810 811 812 813 814 815 817 818 819 820 821 822 823 824 825 826 827 829 830 831 833 834 835 836 837 837 838 839 839 840 841 842 843 844 845 846 847 847 848 849 849 849 850 850 850 851 851 851 852 852 852 852
791 792 793 794 795 795 796 798 799 800 802 803 804 805 806 807 808 809 810 810 812 813 814 815 816 817 818 820 821 823 824 825 826 827 828 829 830 831 832 833 834 835 836 837 837 838 839 840 841 842 843 844 845 846 846 847 848 848 849 849 849 849 849 850 850 850 851 851 851
789 790 791 792 793 793 795 796 797 798 800 801 803 804 805 806 807 808 809 810 810 811 812 813 815 816 817 819 820 822 823 825 825 826 827 828 829 830 831 832 833 834 834 835 836 837 838 839 840 841 842 843 844 845 845 846 847 847 848 848 848 848 849 849 849 849 850 850 850
787 788 790 790 791 792 793 794 795 797 798 800 801 802 803 804 805 806 807 808 808 809 811 812 814 816 817 819 820 822 823 824 825 825 826 827 828 829 830 830 831 832 833 833 834 835 837 838 839 840 841 842 843 844 844 845 845 846 847 847 847 847 848 848 848 849 849 849 849
785 787 788 789 790 791 792 793 794 795 797 798 799 800 800 801 802 803 805 806 807 809 810 812 813 815 817 819 820 821 822 823 824 824 825 825 826 827 828 829 829 830 831 832 832 834 835 836 837 839 840 841 842 843 843 844 844 845 845 846 846 847 847 847 847 848 848 848 848
784 785 786 787 788 789 790 792 793 794 795 796 797 797 798 799 800 802 803 805 807 808 810 811 812 814 816 818 820 821 822 823 823 823 824 824 825 826 826 827 827 828 829 830 831 832 834 835 836 837 839 840 841 841 842 842 843 843 844 844 845 845 846 846 847 847 847 847 847
782 783 784 785 786 787 789 790 791 792 793 794 795 796 797 798 799 800 802 804 805 807 809 810 812 813 815 818 820 821 821 822 822 822 823 823 824 824 825 826 826 827 829 830 831 832 833 834 835 836 837 838 839 840 840 841 842 842 843 843 844 844 845 845 845 845 845 846 846
780 781 782 783 784 785 787 788 790 790 791 792 793 794 795 797 798 799 800 802 804 806 808 809 810 811 813 815 818 820 821 821 821 822 822 822 823 823 824 825 825 827 828 830 831 832 832 833 834 835 836 837 838 839 839 840 840 841 842 842 842 843 844 844 844 844 844 844 844
778 779 780 781 782 784 785 787 788 789 790 791 792 793 794 795 797 798 799 801 802 804 806 807 809 810 810 812 815 817 819 820 820 820 821 821 822 822 823 824 825 826 827 829 830 831 832 832 833 834 835 836 837 838 839 839 839 840 840 841 841 842 842 842 842 842 843 843 843
776 778 779 780 781 782 784 785 787 788 789 790 791 792 793 794 795 797 798 800 801 802 804 805 807 808 808 809 811 814 816 817 818 819 819 820 821 822 822 823 824 825 826 827 829 830 831 831 832 833 834 835 836 837 837 838 839 839 839 839 840 840 840 840 840 841 841 842 842
775 776 777 778 779 781 782 784 785 787 788 789 790 791 792 793 794 796 797 798 799 801 802 804 805 806 807 808 809 812 814 815 816 817 818 819 820 821 822 823 824 825 826 827 828 829 830 831 832 833 834 834 835 836 836 837 838 838 838 838 838 838 838 839 839 839 840 840 841
773 775 775 777 778 779 781 782 784 785 786 787 789 790 791 792 793 794 795 796 798 799 801 803 804 805 806 807 808 810 812 814 815 816 817 818 819 820 820 822 823 824 825 826 827 828 829 830 831 832 833 834 834 835 836 836 837 837 837 837 836 836 837 837 837 838 838 839 839
772 773 774 775 776 778 779 781 782 784 785 786 787 789 790 791 792 793 794 795 796 798 800 801 802 804 805 806 807 808 810 812 813 815 816 817 817 818 819 820 822 823 824 825 827 828 829 830 831 832 833 833 834 834 835 835 835 835 835 835 835 835 835 835 836 837 837 837 837
770 771 772 773 774 776 778 779 781 782 784 785 786 788 789 790 791 792 792 793 795 797 798 800 801 802 804 805 806 807 809 810 812 813 814 815 816 817 818 819 820 821 823 824 826 827 829 830 831 832 832 833 833 834 834 834 834 834 834 834 834 834 834 834 835 835 835 836 836
768 769 770 771 772 774 775 777 779 780 782 783 785 786 787 788 789 790 791 792 793 795 796 798 799 801 802 804 805 806 808 809 811 812 813 814 815 816 817 818 819 820 822 823 824 826 827 829 830 830 831 832 832 833 833 833 833 833 833 833 832 833 833 833 833 834 834 834 834
766 767 767 768 770 771 773 775 777 779 780 782 783 785 786 787 788 788 789 790 791 793 795 796 798 799 801 802 804 805 807 809 810 811 812 814 815 816 817 818 819 820 821 822 822 824 825 827 828 829 830 830 831 831 832 832 832 832 832 832 832 832 832 832 832 832 832 833 833
763 764 765 766 767 769 771 773 775 777 778 780 782 783 784 785 786 787 788 789 790 791 793 795 796 798 799 801 803 805 806 808 809 811 812 813 815 816 817 818 819 820 820 821 821 822 824 825 826 827 827 828 829 829 830 830 830 830 830 830 830 830 831 831 831 831 831 831 832
760 761 762 763 765 767 769 771 772 774 776 778 780 781 782 783 784 785 787 788 789 790 792 793 795 797 798 800 802 804 806 807 809 810 812 813 814 815 817 818 819 820 820 820 820 822 823 824 825 825 826 827 827 828 828 829 829 829 829 829 829 829 829 829 830 830 830 830 830
757 758 760 761 763 765 767 768 770 772 774 776 778 779 780 782 783 784 785 787 789 790 791 792 794 795 797 799 800 802 805 807 808 810 811 813 814 815 816 817 818 819 819 819 820 822 823 823 823 824 825 825 826 826 827 827 827 827 828 828 828 828 828 828 828 828 828 829 829
755 756 758 759 761 763 765 767 769 771 773 774 776 777 779 780 782 783 785 786 788 789 790 791 793 795 796 797 799 801 803 805 807 809 811 812 814 815 816 817 817 818 818 819 820 821 821 822 822 823 823 824 824 825 825 825 826 826 826 826 826 826 826 827 827 827 827 827 828
754 755 757 758 760 762 764 766 768 770 771 773 774 776 777 779 781 783 784 786 787 789 790 791 792 794 795 797 798 800 802 803 805 807 809 811 812 813 814 815 816 817 818 819 819 820 820 820 821 822 822 822 823 823 823 824 824 824 825 825 825 825 825 825 826 826 826 826 826
753 755 757 758 760 761 763 765 767 768 770 771 772 774 776 778 780 782 784 785 786 788 789 790 792 793 795 796 797 799 800 802 804 805 806 808 810 811 812 813 814 815 817 817 818 818 819 820 821 821 821 821 821 821 822 822 822 823 823 824 824 824 824 824 824 825 825 825 825
753 755 756 757 759 760 762 763 765 766 768 769 771 772 774 776 778 780 782 784 785 787 788 790 791 793 794 796 797 799 800 802 803 804 805 806 807 809 810 811 813 814 816 816 817 818 819 820 820 820 820 820 820 820 820 821 821 822 822 822 822 822 823 823 823 823 823 824 824
752 753 755 756 757 759 760 762 763 765 766 768 770 771 773 775 777 779 781 783 785 786 788 789 791 792 793 795 797 799 800 802 804 805 805 805 806 807 809 810 812 814 815 815 816 817 818 819 819 819 819 819 819 819 820 820 820 820 821 821 821 821 821 821 822 822 822 822 822
751 753 754 755 756 757 759 760 762 764 766 768 769 771 772 774 776 778 780 782 784 785 787 788 790 791 793 794 796 798 800 802 803 804 805 805 805 806 808 809 811 812 814 815 816 817 817 817 818 818 818 818 818 818 819 819 819 819 820 820 820 820 820 820 820 820 821 821 821
751 753 755 754 755 756 758 760 762 764 766 767 769 770 772 774 776 778 779 781 783 785 786 787 789 790 792 794 795 797 799 800 801 802 803 804 805 806 807 809 810 811 813 814 815 815 816 816 817 817 817 817 817 817 817 818 818 818 818 818 819 819 819 819 819 819 819 819 819
751 753 754 755 756 757 759 760 762 763 765 767 769 770 772 774 776 777 779 780 782 783 785 786 788 790 791 793 794 796 797 798 799 800 801 803 805 806 807 808 810 811 812 813 814 814 815 815 816 816 816 816 816 816 817 817 817 817 817 817 817 817 817 818 818 818 818 818 818
750 753 754 756 757 759 760 762 763 764 766 767 769 771 773 775 776 777 778 780 781 782 784 786 787 789 790 792 793 795 796 797 798 799 800 802 803 805 807 808 809 810 811 812 813 814 814 814 815 815 815 815 815 815 816 816 816 816 816 816 816 816 816 816 816 816 816 816 816
750 752 754 756 758 760 761 763 765 766 767 768 770 771 773 775 777 778 778 779 781 782 783 785 787 788 790 791 792 794 795 796 797 798 799 801 802 804 806 807 809 810 810 811 812 813 813 813 813 814 814 814 815 815 815 815 815 815 815 815 815 815 815 815 815 815 815 815 815
750 752 754 756 758 760 761 763 765 767 768 769 770 772 774 776 777 778 778 779 780 782 783 785 786 788 789 791 792 793 794 795 796 797 799 800 802 804 805 807 808 809 810 811 811 812 812 812 813 813 813 814 814 814 814 814 814 813 813 813 813 813 813 813 813 813 813 813 813
750 752 754 757 758 759 761 763 765 767 768 769 770 772 774 775 777 778 778 779 780 781 782 784 785 787 788 790 791 792 793 794 796 797 799 800 802 804 805 806 807 808 809 810 810 810 811 811 812 812 812 812 812 812 812 812 812 812 812 812 812 812 812 812 812 812 812 811 811
749 752 755 757 759 760 761 763 765 767 768 769 770 771 772 774 776 777 777 778 779 780 782 783 785 786 787 788 790 791 792 794 796 797 799 801 802 803 805 806 807 807 808 808 809 809 810 810 811 811 811 811 811 811 811 811 811 811 810 810 810 810 810 810 810 810 810 810 810
750 752 754 757 759 760 761 762 764 766 767 768 769 770 771 773 774 775 776 778 779 780 782 783 785 786 787 788 790 791 792 794 796 797 799 800 802 803 804 805 806 807 807 807 808 808 809 809 810 810 810 810 810 810 810 810 809 809 809 809 809 809 809 809 809 808 808 808 808
750 752 754 756 758 759 760 762 763 765 766 768 769 770 771 772 773 775 776 777 779 780 782 783 785 786 788 789 790 792 793 794 796 797 799 800 802 803 803 804 805 806 806 807 807 808 808 809 809 809 809 809 809 808 808 808 808 808 808 807 807 807 807 807 807 807 807 807 807
750 752 754 756 758 759 760 762 763 765 766 767 768 770 771 772 774 775 776 777 779 780 782 783 785 786 787 789 790 792 793 794 796 797 799 800 801 802 803 804 804 805 805 806 807 807 807 808 808 808 808 808 807 807 807 807 807 806 806 806 806 806 806 806 805 805 805 805 805
750 752 753 755 757 759 760 762 763 765 766 767 768 770 771 772 773 775 776 777 779 780 782 783 785 786 787 789 790 792 793 795 796 797 798 800 800 801 802 803 804 804 805 806 806 807 807 807 807 807 807 806 806 806 806 806 805 805 805 805 804 804 804 804 804 804 803 803 803
749 751 753 754 756 758 760 762 763 765 766 767 768 770 771 772 774 775 776 777 778 780 781 783 785 786 787 789 791 792 793 795 796 797 798 799 800 801 802 802 803 804 805 805 806 806 806 806 806 806 805 805 805 805 805 804 804 803 803 803 803 802 802 802 802 802 802 801 801
748 750 752 753 755 757 759 761 763 764 766 767 768 770 771 772 774 775 776 777 779 780 782 783 785 786 788 789 791 792 793 795 796 797 798 799 799 800 801 802 803 803 804 805 805 805 805 805 805 804 804 804 804 804 803 803 802 802 802 801 801 801 800 800 800 800 800 800 800
747 749 751 753 755 757 759 761 763 765 766 767 768 770 771 772 774 775 777 778 779 781 782 784 785 787 788 789 791 792 793 794 795 796 797 798 799 800 801 802 802 803 803 804 804 804 804 803 803 803 803 803 803 802 802 802 801 801 800 800 800 799 799 799 799 798 798 798 798